Find Starlink 5261

NORAD ID: 55276 Int'l Des: 2023-010 Owner: SPXS Country: US Constellation: starlink operational
LEOCIRCULAR

現在のビュー

3D地球を読み込み中...

About Starlink 5261

Starlink 5261 (NORAD 55276) is a starlink constellation satellite (v1.5) launched Jan 19, 2023 by SPXS of US. It operates in LEO, CIRCULAR orbit with a mass of 305.00 kg.

次回通過

Passes for default location (London). Set your location on the main map for personalized predictions.

高度履歴

Loading altitude history...

軌道要素

1 55276U 23010H 26237.37364223 .00000242 00000-0 28064-4 0 9993
2 55276 69.9998 319.2562 0003417 268.1221 91.9547 14.98331084198534
Epoch: Aug 25, 2026 • Age: 23 hours

現在のステータス

高度 583.3 km
遠地点 / 近地点 N/A
速度 7.57 km/s
衛星直下点 57.50°N, 98.3°W
打ち上げ日 Jan 19, 2023
運用期間 3.5 years
タイプ internet

技術仕様

分類 Payload
質量 305.00 kg
乾燥質量 290.00 kg
総質量 305.00 kg
長さ 0.20 m
直径 2.80 m
スパン 9.00 m
形状 Box + pan
製造者 SPXS
バスタイプ Starlink
フェーズステータス In Orbit
所有者/国 SPXS/US

Most Searched